Time,TemperatureF,DewpointF,PressureIn,WindDirection,WindDirectionDegrees,WindSpeedMPH,WindSpeedGustMPH,Humidity,HourlyPrecipIn,Conditions,Clouds,dailyrainin,SolarRadiationWatts/m^2,SoftwareType,DateUTC
2013-06-26 00:02:00,73.0,68.0,-100.00,SW,215,6.0,15.0,85,0.00,,,0.00,0.000000,,2013-06-26 04:02:00,
2013-06-26 00:43:00,72.0,68.0,-100.00,SW,214,7.0,14.0,86,0.00,,,0.00,0.000000,,2013-06-26 04:43:00,
2013-06-26 00:53:00,72.0,68.0,-100.00,SW,214,7.0,14.0,86,0.00,,,0.00,0.000000,,2013-06-26 04:53:00,
2013-06-26 01:02:00,72.0,68.0,-100.00,SW,214,7.0,14.0,86,0.00,,,0.00,0.000000,,2013-06-26 05:02:00,
2013-06-26 01:11:00,72.0,68.0,-100.00,SW,214,7.0,14.0,86,0.00,,,0.00,0.000000,,2013-06-26 05:11:00,
2013-06-26 01:12:00,71.0,67.0,-100.00,SW,221,8.0,14.0,88,0.00,,,0.00,0.000000,,2013-06-26 05:12:00,
2013-06-26 01:43:00,71.0,67.0,-100.00,SW,221,8.0,14.0,88,0.00,,,0.00,0.000000,,2013-06-26 05:43:00,
2013-06-26 01:52:00,71.0,67.0,-100.00,SW,221,8.0,14.0,88,0.00,,,0.00,0.000000,,2013-06-26 05:52:00,
2013-06-26 02:02:00,71.0,67.0,-100.00,SW,221,8.0,14.0,88,0.00,,,0.00,0.000000,,2013-06-26 06:02:00,
2013-06-26 02:44:00,71.0,67.0,-100.00,SW,229,8.0,17.0,88,0.00,,,0.00,0.000000,,2013-06-26 06:44:00,
2013-06-26 02:53:00,71.0,67.0,-100.00,SW,229,8.0,17.0,88,0.00,,,0.00,0.000000,,2013-06-26 06:53:00,
2013-06-26 03:01:00,71.0,67.0,-100.00,SW,229,8.0,17.0,88,0.00,,,0.00,0.000000,,2013-06-26 07:01:00,
2013-06-26 03:11:00,71.0,67.0,-100.00,SW,229,8.0,17.0,88,0.00,,,0.00,0.000000,,2013-06-26 07:11:00,
2013-06-26 03:43:00,71.0,67.0,-100.00,SW,227,7.0,14.0,87,0.00,,,0.00,0.000000,,2013-06-26 07:43:00,
2013-06-26 03:53:00,71.0,67.0,-100.00,SW,227,7.0,14.0,87,0.00,,,0.00,0.000000,,2013-06-26 07:53:00,
2013-06-26 04:01:00,71.0,67.0,-100.00,SW,227,7.0,14.0,87,0.00,,,0.00,0.000000,,2013-06-26 08:01:00,
2013-06-26 04:11:00,71.0,67.0,-100.00,SW,227,7.0,14.0,87,0.00,,,0.00,0.000000,,2013-06-26 08:11:00,
2013-06-26 04:43:00,71.0,67.0,-100.00,SW,228,7.0,14.0,88,0.00,,,0.00,0.000000,,2013-06-26 08:43:00,
2013-06-26 04:53:00,71.0,67.0,-100.00,SW,228,7.0,14.0,88,0.00,,,0.00,0.000000,,2013-06-26 08:53:00,
2013-06-26 05:01:00,71.0,67.0,-100.00,SW,228,7.0,14.0,88,0.00,,,0.00,0.000000,,2013-06-26 09:01:00,
2013-06-26 05:11:00,71.0,67.0,-100.00,SW,228,7.0,14.0,88,0.00,,,0.00,0.000000,,2013-06-26 09:11:00,
2013-06-26 05:12:00,71.0,67.0,-100.00,SW,229,6.0,11.0,88,0.00,,,0.00,1.000000,,2013-06-26 09:12:00,
2013-06-26 05:43:00,71.0,67.0,-100.00,SW,229,6.0,11.0,88,0.00,,,0.00,1.000000,,2013-06-26 09:43:00,
2013-06-26 05:53:00,71.0,67.0,-100.00,SW,229,6.0,11.0,88,0.00,,,0.00,1.000000,,2013-06-26 09:53:00,
2013-06-26 06:01:00,71.0,67.0,-100.00,SW,229,6.0,11.0,88,0.00,,,0.00,1.000000,,2013-06-26 10:01:00,
2013-06-26 06:12:00,72.0,67.0,-100.00,SW,234,5.0,12.0,83,0.00,,,0.00,46.000000,,2013-06-26 10:12:00,
2013-06-26 06:43:00,72.0,67.0,-100.00,SW,234,5.0,12.0,83,0.00,,,0.00,46.000000,,2013-06-26 10:43:00,
2013-06-26 06:53:00,72.0,67.0,-100.00,SW,234,5.0,12.0,83,0.00,,,0.00,46.000000,,2013-06-26 10:53:00,
2013-06-26 07:02:00,72.0,67.0,-100.00,SW,234,5.0,12.0,83,0.00,,,0.00,46.000000,,2013-06-26 11:02:00,
2013-06-26 07:12:00,74.0,68.0,-100.00,SW,231,5.0,10.0,83,0.00,,,0.00,205.000000,,2013-06-26 11:12:00,
2013-06-26 07:44:00,74.0,68.0,-100.00,SW,231,5.0,10.0,83,0.00,,,0.00,205.000000,,2013-06-26 11:44:00,
2013-06-26 07:52:00,74.0,68.0,-100.00,SW,231,5.0,10.0,83,0.00,,,0.00,205.000000,,2013-06-26 11:52:00,
2013-06-26 08:02:00,74.0,68.0,-100.00,SW,231,5.0,10.0,83,0.00,,,0.00,205.000000,,2013-06-26 12:02:00,
2013-06-26 08:43:00,77.0,69.0,-100.00,SW,227,5.0,10.0,77,0.00,,,0.00,459.000000,,2013-06-26 12:43:00,
2013-06-26 08:52:00,77.0,69.0,-100.00,SW,227,5.0,10.0,77,0.00,,,0.00,459.000000,,2013-06-26 12:52:00,
2013-06-26 09:02:00,77.0,69.0,-100.00,SW,227,5.0,10.0,77,0.00,,,0.00,459.000000,,2013-06-26 13:02:00,
2013-06-26 09:11:00,77.0,69.0,-100.00,SW,227,5.0,10.0,77,0.00,,,0.00,459.000000,,2013-06-26 13:11:00,
2013-06-26 09:12:00,79.0,69.0,-100.00,SW,235,5.0,11.0,72,0.00,,,0.00,662.000000,,2013-06-26 13:12:00,
2013-06-26 09:43:00,79.0,69.0,-100.00,SW,235,5.0,11.0,72,0.00,,,0.00,662.000000,,2013-06-26 13:43:00,
2013-06-26 09:53:00,79.0,69.0,-100.00,SW,235,5.0,11.0,72,0.00,,,0.00,662.000000,,2013-06-26 13:53:00,
2013-06-26 10:02:00,79.0,69.0,-100.00,SW,235,5.0,11.0,72,0.00,,,0.00,662.000000,,2013-06-26 14:02:00,
2013-06-26 10:12:00,82.0,69.0,-100.00,WSW,237,5.0,10.0,65,0.00,,,0.00,902.000000,,2013-06-26 14:12:00,
2013-06-26 10:42:00,82.0,69.0,-100.00,WSW,237,5.0,10.0,65,0.00,,,0.00,902.000000,,2013-06-26 14:42:00,
2013-06-26 10:53:00,82.0,69.0,-100.00,WSW,237,5.0,10.0,65,0.00,,,0.00,902.000000,,2013-06-26 14:53:00,
2013-06-26 11:02:00,82.0,69.0,-100.00,WSW,237,5.0,10.0,65,0.00,,,0.00,902.000000,,2013-06-26 15:02:00,
2013-06-26 11:44:00,83.0,70.0,-100.00,WSW,239,3.0,9.0,65,0.00,,,0.00,939.000000,,2013-06-26 15:44:00,
2013-06-26 11:53:00,83.0,70.0,-100.00,WSW,239,3.0,9.0,65,0.00,,,0.00,939.000000,,2013-06-26 15:53:00,
2013-06-26 12:02:00,83.0,70.0,-100.00,WSW,239,3.0,9.0,65,0.00,,,0.00,939.000000,,2013-06-26 16:02:00,
2013-06-26 12:11:00,83.0,70.0,-100.00,WSW,239,3.0,9.0,65,0.00,,,0.00,939.000000,,2013-06-26 16:11:00,
2013-06-26 14:43:00,81.0,67.0,-100.00,ENE,66,5.0,10.0,62,-99.99,,,0.00,1059.000000,,2013-06-26 18:43:00,
2013-06-26 14:52:00,81.0,67.0,-100.00,ENE,66,5.0,10.0,62,-99.99,,,0.00,1059.000000,,2013-06-26 18:52:00,
2013-06-26 15:02:00,81.0,67.0,-100.00,ENE,66,5.0,10.0,62,-99.99,,,0.00,1059.000000,,2013-06-26 19:02:00,
2013-06-26 15:11:00,81.0,67.0,-100.00,ENE,66,5.0,10.0,62,-99.99,,,0.00,1059.000000,,2013-06-26 19:11:00,
2013-06-26 15:12:00,75.0,68.0,-100.00,North,10,4.0,10.0,78,0.00,,,0.00,487.000000,,2013-06-26 19:12:00,
2013-06-26 15:43:00,75.0,68.0,-100.00,North,10,4.0,10.0,78,0.00,,,0.00,487.000000,,2013-06-26 19:43:00,
2013-06-26 15:52:00,75.0,68.0,-100.00,North,10,4.0,10.0,78,0.00,,,0.00,487.000000,,2013-06-26 19:52:00,
2013-06-26 16:02:00,75.0,68.0,-100.00,North,10,4.0,10.0,78,0.00,,,0.00,487.000000,,2013-06-26 20:02:00,
2013-06-26 16:12:00,75.0,67.0,-100.00,NE,39,3.0,9.0,77,0.00,,,0.00,680.000000,,2013-06-26 20:12:00,
2013-06-26 16:43:00,75.0,67.0,-100.00,NE,39,3.0,9.0,77,0.00,,,0.00,680.000000,,2013-06-26 20:43:00,
2013-06-26 16:53:00,75.0,67.0,-100.00,NE,39,3.0,9.0,77,0.00,,,0.00,680.000000,,2013-06-26 20:53:00,
2013-06-26 17:02:00,75.0,67.0,-100.00,NE,39,3.0,9.0,77,0.00,,,0.00,680.000000,,2013-06-26 21:02:00,
2013-06-26 17:43:00,72.0,66.0,-100.00,ESE,103,3.0,7.0,82,0.00,,,0.00,265.000000,,2013-06-26 21:43:00,
2013-06-26 17:52:00,72.0,66.0,-100.00,ESE,103,3.0,7.0,82,0.00,,,0.00,265.000000,,2013-06-26 21:52:00,
2013-06-26 18:01:00,72.0,66.0,-100.00,ESE,103,3.0,7.0,82,0.00,,,0.00,265.000000,,2013-06-26 22:01:00,
2013-06-26 18:11:00,72.0,66.0,-100.00,ESE,103,3.0,7.0,82,0.00,,,0.00,265.000000,,2013-06-26 22:11:00,
2013-06-26 18:12:00,72.0,68.0,-100.00,East,83,1.0,5.0,88,0.00,,,0.00,114.000000,,2013-06-26 22:12:00,
2013-06-26 18:43:00,72.0,68.0,-100.00,East,83,1.0,5.0,88,0.00,,,0.00,114.000000,,2013-06-26 22:43:00,
2013-06-26 18:52:00,72.0,68.0,-100.00,East,83,1.0,5.0,88,0.00,,,0.00,114.000000,,2013-06-26 22:52:00,
2013-06-26 19:02:00,72.0,68.0,-100.00,East,83,1.0,5.0,88,0.00,,,0.00,114.000000,,2013-06-26 23:02:00,
2013-06-26 19:12:00,69.0,65.0,-100.00,North,8,3.0,5.0,88,0.00,,,0.00,81.000000,,2013-06-26 23:12:00,
2013-06-26 19:43:00,69.0,65.0,-100.00,North,8,3.0,5.0,88,0.00,,,0.00,81.000000,,2013-06-26 23:43:00,
2013-06-26 19:53:00,69.0,65.0,-100.00,North,8,3.0,5.0,88,0.00,,,0.00,81.000000,,2013-06-26 23:53:00,
2013-06-26 20:01:00,69.0,65.0,-100.00,North,8,3.0,5.0,88,0.00,,,0.00,81.000000,,2013-06-27 00:01:00,
2013-06-26 20:43:00,68.0,67.0,-100.00,North,354,1.0,7.0,95,0.25,,,-99.99,8.000000,,2013-06-27 00:43:00,
2013-06-26 20:53:00,68.0,67.0,-100.00,North,354,1.0,7.0,95,0.25,,,-99.99,8.000000,,2013-06-27 00:53:00,
2013-06-26 21:01:00,68.0,67.0,-100.00,North,354,1.0,7.0,95,0.25,,,-99.99,8.000000,,2013-06-27 01:01:00,
2013-06-26 21:11:00,68.0,67.0,-100.00,North,354,1.0,7.0,95,0.25,,,-99.99,8.000000,,2013-06-27 01:11:00,
2013-06-26 21:32:00,68.0,67.0,-100.00,NE,43,0.0,6.0,96,0.00,,,0.25,1.000000,,2013-06-27 01:32:00,
2013-06-26 21:43:00,68.0,67.0,-100.00,NE,43,0.0,6.0,96,0.00,,,0.25,1.000000,,2013-06-27 01:43:00,
2013-06-26 21:53:00,68.0,67.0,-100.00,NE,43,0.0,6.0,96,0.00,,,0.25,1.000000,,2013-06-27 01:53:00,
2013-06-26 22:01:00,68.0,67.0,-100.00,NE,43,0.0,6.0,96,0.00,,,0.25,1.000000,,2013-06-27 02:01:00,
2013-06-26 22:11:00,68.0,67.0,-100.00,NE,43,0.0,6.0,96,0.00,,,0.25,1.000000,,2013-06-27 02:11:00,
2013-06-26 22:32:00,66.0,65.0,-100.00,NNE,14,2.0,5.0,97,0.00,,,0.25,0.000000,,2013-06-27 02:32:00,
2013-06-26 22:42:00,66.0,65.0,-100.00,NNE,14,2.0,5.0,97,0.00,,,0.25,0.000000,,2013-06-27 02:42:00,
2013-06-26 22:52:00,66.0,65.0,-100.00,NNE,14,2.0,5.0,97,0.00,,,0.25,0.000000,,2013-06-27 02:52:00,
2013-06-26 23:02:00,66.0,65.0,-100.00,NNE,14,2.0,5.0,97,0.00,,,0.25,0.000000,,2013-06-27 03:02:00,
2013-06-26 23:11:00,66.0,65.0,-100.00,NNE,14,2.0,5.0,97,0.00,,,0.25,0.000000,,2013-06-27 03:11:00,
2013-06-26 23:33:00,65.0,64.0,-100.00,ENE,72,1.0,6.0,97,0.00,,,0.25,0.000000,,2013-06-27 03:33:00,
2013-06-26 23:42:00,65.0,64.0,-100.00,ENE,72,1.0,6.0,97,0.00,,,0.25,0.000000,,2013-06-27 03:42:00,
2013-06-26 23:52:00,65.0,64.0,-100.00,ENE,72,1.0,6.0,97,0.00,,,0.25,0.000000,,2013-06-27 03:52:00,